{"data":{"norad_id":57643,"intl_designator":"2023-122M","name":"STARLINK-30280","alt_names":[],"object_type":"PAYLOAD","status":"ACTIVE","operator":null,"country":"US","launch_date":"2023-08-17","launch_site_code":"AFETR","launch_vehicle":null,"mission":null,"orbit_class":"UNKNOWN","rcs_meters":null,"size_class":null,"mass_kg":null,"dimensions":null,"purposes":["comms"],"wikipedia_slug":null,"has_3d_model":false,"image_url":null,"decayed_at":null,"tle_current":{"epoch":"2026-09-19T22:01:16.500576Z","epoch_age_seconds":181522,"freshness":"STALE","line1":"1 57643U 23122M   26262.91755209  .00000006  00000+0  97491-5 0  9991","line2":"2 57643  43.0029  75.4308 0001366 268.5761  91.4934 15.27575937171913","mean_motion":15.27575937,"eccentricity":0.0001366,"inclination_deg":43.0029,"raan_deg":75.4308,"arg_perigee_deg":268.5761,"mean_anomaly_deg":91.4934,"bstar":9.7491e-6,"rev_number":17191,"period_min":94.266999441482,"perigee_km":482.12402246766,"apogee_km":483.99850183289,"semimajor_km":6861.1982621503,"source":"CELESTRAK","updated_at":"2026-09-21T09:00:33.667387Z"}}}